星链-4063 (STARLINK-4063 )

导读 | 豆包AI

STARLINK-4063是美国SpaceX公司星链(Starlink)低轨卫星互联网星座计划中的卫星,于2022年7月17日发射。该卫星依托星链项目,旨在为全球提供高速低延迟互联网接入,星链计划计划部署数万颗卫星,截至当前已构建全球规模最大低轨卫星群,可覆盖全球百余个国家,支撑偏远地区联网、特殊场景通信等多元应用,但也面临太空碰撞与天文观测争议。

Basic Information
目录编号:
53132
目录名称:
STARLINK-4063
国际标识:
2022-083A
轨道中心:
EARTH
卫星名称:
星链-4063
卫星全名:
星链-4063 (STARLINK-4063 )
卫星状态:
已陨落 最后检测时间 2025-12-30
发射日期:
2022-07-17 UTC
国别 :
美国 (US)
星等 :
--
Orbit Information
数据来源 国际轨道数据
星历时间: 2025-12-31T01:59:20+0800
轨道信息已过期74天
半长轴: 6531.601km
偏心率: 0.0003387
轨道倾角: 53.202°
近地点辐角 288.009°
升交点赤经 89.478°
平近点角 213.028°
近地点: 151.251km
远地点: 155.677km
周期: 87.557分钟
每日圈数: 16.446495
Detailed Information
固有亮度:
5
最大亮度:
2.5
卫星平台:
Starlink v1.5
覆盖范围:
全球
运营商:
太空探索技术公司
运营商所在国:
美国
制造商(研发单位):
太空探索技术公司
制造商所在国:
美国
使用方式:
暂无
Satellite Introduction
星链(Starlink)计划是由太空探索技术公司(SpaceX)提出的一个巨型低轨卫星互联网星座项目,计划在2019年至2024年间在太空搭建由约1.2万颗卫星组成的“星链”网络,其中1584颗将部署在地球上空550千米处的近地轨道,并从2020年开始工作。该卫星仍在工作。